Location: Monfort
(47.1967°N, 0.2115°W)
Time: 11:56:05
(UTC+00:00)

CORIOLIS - Pass Details

Date: 24 October 2020
Orbit: 819 x 838 km, 98.7° (Epoch: 27 November)

Event Time Altitude Azimuth Distance (km) Brightness Sun altitude
Rises 17:19:17 0° 160° (SSE) 3,336 7.2 -4.6°
Reaches altitude 10° 17:21:37 10° 159° (SSE) 2,408 6.5 -4.9°
Maximum altitude 17:26:57 81° 74° (ENE) 837 4.1 -5.8°
Drops below altitude 10° 17:32:19 10° 347° (NNW) 2,430 6.6 -6.7°
Sets 17:34:41 0° 347° (NNW) 3,369 7.4 -7.1°
